Logan, UT

6:25 AM MDT on August 21, 2017 (GMT -0600)
Logan-Cache

Weather History for KLGU - October, 2013

Change the Weather History Date:

Friday, October 25, 2013

  Actual Average Record
Temperature  
Mean Temperature 49 °F -  
Max Temperature 69 °F 59 °F 77 °F (2014)
Min Temperature 30 °F 31 °F 15 °F (2001)
Degree Days  
Heating Degree Days 16    
Moisture  
Dew Point 30 °F    
Average Humidity 59    
Maximum Humidity 85    
Minimum Humidity 23    
Precipitation  
Precipitation 0.00 in - - ()
Sea Level Pressure  
Sea Level Pressure 30.21 in    
Wind  
Wind Speed 1 mph (SSE)    
Max Wind Speed 5 mph    
Max Gust Speed -    
Visibility 10 miles    
Events      
Averages and records for this station are not official NWS values.
T = Trace of Precipitation, MM = Missing Value Source: NWS Daily Summary

Daily Weather History Graph

Daily Weather History Graph

Search for Another Location

Airport or City:

Trip Planner

Search our weather history database for the weather conditions in past years. The results will help you decide how hot, cold, wet, or windy it might be!

Date:

Astronomy

Oct. 25, 2013 Rise Set
Actual Time 7:51 AM MDT 6:30 PM MDT
Civil Twilight 7:23 AM MDT 6:59 PM MDT
Nautical Twilight 6:50 AM MDT 7:31 PM MDT
Astronomical Twilight 6:18 AM MDT 8:03 PM MDT
Moon 11:52 PM MDT (10/25) 1:35 PM MDT (10/25)
Length of Visible Light 11h 36m
Length of Day
10h 38m
Waning Gibbous, 62% of the Moon is Illuminated
Oct 25
Waning Gibbous
Oct 26
Last Quarter
Nov 3
New
Nov 9
First Quarter
Nov 17
Full

Hourly Weather History & Observations

Time (MDT) Temp. Windchill Dew Point Humidity Pressure Visibility Wind Dir Wind Speed Gust Speed Precip Events Conditions
12:51 AM 41.0 °F - 30.9 °F 67% 30.14 in 10.0 mi Calm Calm - N/A   Clear
1:51 AM 34.0 °F 31.0 °F 28.9 °F 82% 30.16 in 10.0 mi SSW 3.5 mph - N/A   Clear
2:51 AM 37.0 °F - 30.0 °F 76% 30.15 in 10.0 mi Calm Calm - N/A   Clear
3:51 AM 32.0 °F - 27.0 °F 82% 30.17 in 10.0 mi Calm Calm - N/A   Clear
4:51 AM 30.9 °F - 27.0 °F 85% 30.17 in 10.0 mi Calm Calm - N/A   Clear
5:51 AM 33.1 °F - 27.0 °F 78% 30.19 in 10.0 mi Calm Calm - N/A   Clear
6:51 AM 30.0 °F - 26.1 °F 85% 30.22 in 10.0 mi Calm Calm - N/A   Clear
7:51 AM 30.0 °F - 26.1 °F 85% 30.25 in 10.0 mi Calm Calm - N/A   Clear
8:51 AM 32.0 °F - 28.0 °F 85% 30.27 in 10.0 mi Calm Calm - N/A   Clear
9:51 AM 37.9 °F - 33.1 °F 83% 30.28 in 10.0 mi Calm Calm - N/A   Clear
10:51 AM 48.0 °F - 30.9 °F 52% 30.25 in 10.0 mi Calm Calm - N/A   Clear
11:51 AM 52.0 °F - 30.9 °F 45% 30.25 in 10.0 mi Calm Calm - N/A   Clear
12:51 PM 57.0 °F - 30.9 °F 37% 30.21 in 10.0 mi Calm Calm - N/A   Clear
1:51 PM 61.0 °F - 30.0 °F 31% 30.20 in 10.0 mi Calm Calm - N/A   Clear
2:51 PM 66.0 °F - 30.0 °F 26% 30.16 in 10.0 mi Calm Calm - N/A   Clear
3:51 PM 66.9 °F - 28.9 °F 24% 30.16 in 10.0 mi Calm Calm - N/A   Clear
4:51 PM 68.0 °F - 28.9 °F 23% 30.15 in 10.0 mi Calm Calm - N/A   Clear
5:51 PM 64.9 °F - 30.9 °F 28% 30.16 in 10.0 mi SSW 3.5 mph - N/A   Clear
6:51 PM 55.9 °F - 35.1 °F 45% 30.20 in 10.0 mi Variable 3.5 mph - N/A   Clear
7:51 PM 51.1 °F - 33.1 °F 50% 30.23 in 10.0 mi East 4.6 mph - N/A   Clear
8:51 PM 46.0 °F 44.8 °F 32.0 °F 58% 30.25 in 10.0 mi SE 3.5 mph - N/A   Clear
9:51 PM 46.0 °F - 32.0 °F 58% 30.26 in 10.0 mi Calm Calm - N/A   Clear
10:51 PM 42.1 °F - 30.9 °F 65% 30.26 in 10.0 mi Calm Calm - N/A   Clear
11:51 PM 39.9 °F - 30.9 °F 70% 30.26 in 10.0 mi Calm Calm - N/A   Clear